Regional Weather Roundup
Issued by NWS

Home | Current Version | Previous Version | Text Only | Print | Product List | Glossary Off
Versions: 1 2 3 4 5 6 7 8 9 10 11 12 13 14 15 16 17 18 19 20 21 22 23 24 25 26 27 28 29 30 31 32 33 34 35 36 37 38 39 40 41 42 43 44 45 46 47 48 49 50

000
ASUS44 KMEG 020410
RWRTN
TENNESSEE HOURLY STATE WEATHER ROUNDUP
NATIONAL WEATHER SERVICE MEMPHIS TN
1100 PM CDT WED OCT 01 2014

TNZ002-004-019-021-049-052-054-088>092-020500-
WEST TENNESSEE

CITY           SKY/WX    TMP DP  RH WIND       PRES   REMARKS
MEMPHIS INTL   PTCLDY    78  62  57 SE8       29.91S
NWS MEMPHIS      N/A     75 N/A N/A MISG        N/A
JACKSON        PTCLDY    70  61  73 S5        29.93S
DYERSBURG      CLEAR     73  55  53 S5        29.92F
UNION CITY     CLEAR     64  61  88 SE3       29.91S
PARIS          CLEAR     64  57  77 CALM      29.95S
HUNTINGDON     CLEAR     65  61  87 CALM      29.94S
LEXINGTON      CLEAR     63  63 100 CALM      29.94F
SAVANNAH         N/A     66  64  94 CALM      29.96S
$$

TNZ008-025-027-028-033-062-065-066-020500-
NORTH MIDDLE TENNESSEE

CITY           SKY/WX    TMP DP  RH WIND       PRES   REMARKS
NASHVILLE      CLEAR     70  58  65 S3        29.98S
PORTLAND       CLEAR     64  55  72 SE5       29.98F
CLARKSVILLE    CLEAR     64  59  83 E7        29.95S
LEBANON        CLEAR     63  57  80 CALM      29.97F
SMYRNA         CLEAR     65  59  81 CALM      29.99S
MURFREESBORO   CLEAR     67  58  72 CALM      29.98S
COOKEVILLE     CLEAR     57  55  94 CALM      30.01F
LIVINGSTON     CLEAR     69  56  63 S3        30.04S
GALLATIN       CLEAR     64  58  81 CALM      29.99F
CROSSVILLE     CLEAR     62  56  80 CALM      30.07F
$$

TNZ061-075-076-078-094-096-097-020500-
SOUTH MIDDLE TENNESSEE

CITY           SKY/WX    TMP DP  RH WIND       PRES   REMARKS
LEWISBURG      CLEAR     61  58  90 CALM      29.98F
FAYETTEVILLE   CLEAR     66  55  68 S5        30.00F
TULLAHOMA      CLEAR     61  57  88 CALM      30.02F
WINCHESTER     CLEAR     63  59  88 CALM      30.02S
MCMINNVILLE    CLEAR     61  61 100 CALM      30.02F
COLUMBIA       CLEAR     64  64 100 CALM      29.96F
SHELBYVILLE    CLEAR     64  61  88 E3        30.00F
$$

TNZ017-018-042-046-047-020500-
NORTHEAST TENNESSEE

CITY           SKY/WX    TMP DP  RH WIND       PRES   REMARKS
TRI CITIES     CLEAR     56  52  86 CALM      30.08S
ELIZABETHTON   CLEAR     57  52  82 NE3       30.10R
$$

TNZ012-013-036-069-073-074-020500-
CENTRAL EAST TENNESSEE

CITY           SKY/WX    TMP DP  RH WIND       PRES   REMARKS
KNOXVILLE      CLEAR     65  56  72 CALM      30.02F
OAK RIDGE      CLEAR     60  57  89 CALM      30.05S
GATLINBURG     CLEAR     61  55  82 CALM      30.04F
MORRISTOWN     CLEAR     63  55  77 E3        30.06F
$$

TNZ083-085-099-020500-
SOUTHEAST TENNESSEE

CITY           SKY/WX    TMP DP  RH WIND       PRES   REMARKS
CHATTANOOGA    CLEAR     66  61  84 CALM      30.02S
$$

SKY/WX REPORTED AS FAIR MEANS FEW OR NO CLOUDS BELOW
12 THOUSAND FEET.



USA.gov is the U.S. government's official web portal to all federal, state and local government web resources and services.